[[{"header":{"parameterUnit":"m.s-1","parameterCategory":1,"la1":30.2991,"la2":30.254,"lo1":-89.0895,"lo2":-89.0444,"dy":0.0017,"dx":0.0017,"nx":28,"ny":28,"refTime":"2024-06-16T09:00:00:Z","depth":0,"parameterNumber":2,"parameterNumberName":"U-component_of_WINDS"},"data":[0,0,0,0,0,0,0,0,0,0,0,0,0,0,0,0,0,0,0,0,0,0,0,0,0,0,0,0,0,0,0,0,0,0,0,0,0,0,0,0,0,0,0,0,0,0,0,0,0,0,0,0,0,0,0,0,0,0,-7.2419,-7.2419,0,-7.2402,-7.2402,-7.2402,-7.228,-7.2277,-7.2274,-7.2271,-7.2253,-7.2256,-7.2258,0,0,0,0,0,0,0,0,0,0,0,0,0,-7.2346,-7.2348,-7.2419,-7.2419,-7.2418,-7.2402,-7.2402,-7.2402,-7.228,-7.2277,-7.2273,-7.2269,-7.2253,-7.2255,-7.2258,0,0,0,0,0,0,0,0,0,0,0,0,0,-7.2359,-7.2349,-7.2419,-7.2356,-7.235,-7.2402,-7.2402,-7.2402,-7.2281,-7.2276,-7.2272,-7.2268,-7.2252,-7.2255,-7.2259,-7.237,0,0,-7.2269,-7.2271,0,0,0,0,0,0,0,0,-7.2358,-7.2361,-7.2365,-7.236,-7.2354,-7.2338,-7.237,-7.2391,-7.2282,-7.2307,-7.2271,-7.2266,-7.2285,-7.2286,-7.2292,-7.2369,-7.2368,-7.227,-7.2272,-7.2273,-7.2274,0,0,0,0,0,0,0,-7.2357,-7.2361,-7.2412,-7.2365,-7.2359,-7.2329,-7.2325,-7.2373,-7.2322,-7.2305,-7.2296,-7.2295,-7.2281,-7.2289,-7.2291,-7.2368,-7.227,-7.2273,-7.2275,-7.2276,-7.2536,-7.2541,0,0,0,0,0,0,-7.2365,-7.2361,-7.2413,-7.2412,-7.2345,-7.2334,-7.233,-7.2348,-7.2321,-7.2312,-7.2299,-7.229,-7.2286,-7.2287,-7.229,-7.2418,-7.2273,-7.2276,-7.2278,-7.2531,-7.2537,-7.2542,0,0,0,0,0,0,-7.2364,-7.2371,-7.2413,-7.2384,-7.2387,-7.234,-7.2361,-7.235,-7.2358,-7.2317,-7.2307,-7.2317,-7.2282,-7.2285,-7.2351,-7.2415,-7.2278,-7.2281,-7.2526,-7.2533,-7.254,-7.2675,0,0,0,0,0,0,-7.2363,-7.2371,-7.2412,-7.2386,-7.2389,-7.2475,-7.2365,-7.2353,-7.2364,-7.2352,-7.2331,-7.2323,-7.2279,-7.2347,-7.2355,-7.2418,-7.2284,-7.252,-7.2529,-7.2538,-7.2664,-7.2686,-7.2704,0,0,0,0,0,-7.236,-7.2451,-7.2415,-7.2422,-7.244,-7.2478,-7.248,-7.2428,-7.237,-7.2411,-7.2385,-7.2324,-7.2408,-7.2354,-7.2362,-7.2428,-7.2515,-7.2526,-7.2537,-7.2656,-7.2682,-7.2704,0,0,0,0,0,0,-7.2485,-7.2446,-7.2406,-7.2491,-7.2489,-7.2458,-7.2508,-7.2457,-7.2471,-7.2459,-7.2394,-7.239,-7.2466,-7.2454,-7.2395,-7.2535,-7.2451,-7.2464,-7.2539,-7.2563,-7.2583,-7.2583,-7.2287,0,0,0,0,0,-7.2523,-7.2558,-7.2522,-7.26,-7.2601,-7.2556,-7.257,-7.2531,-7.2526,-7.2524,-7.2503,-7.2501,-7.2527,-7.2545,-7.2567,-7.2664,-7.2657,-7.2713,-7.2733,-7.2749,-7.276,-7.281,-7.2835,-7.2578,-7.2578,-7.2578,0,0,-7.26,-7.2583,-7.2609,-7.2625,-7.2618,-7.2656,-7.2555,-7.2599,-7.2625,-7.253,-7.2591,-7.2576,-7.257,-7.2652,-7.2687,-7.2644,-7.2831,-7.2763,-7.2777,-7.2778,-7.2824,-7.2848,-7.287,-7.2585,-7.2584,-7.2583,0,0,-7.2759,-7.2751,-7.2815,-7.2812,-7.2804,-7.2774,-7.279,-7.2767,-7.2753,-7.2814,-7.2743,-7.2775,-7.2822,-7.2819,-7.2825,-7.2988,-7.2931,-7.2997,-7.31,-7.315,-7.317,-7.3187,-7.3244,-7.3265,-7.3009,-7.301,-7.301,0,-7.2856,-7.2909,-7.2854,-7.2903,-7.2912,-7.283,-7.2894,-7.2894,-7.2894,-7.2902,-7.2855,-7.2912,-7.2902,-7.2982,-7.3022,-7.303,-7.3045,-7.2997,-7.3171,-7.3188,-7.3204,-7.3257,-7.3279,-7.3017,-7.3016,-7.3016,-7.3015,0,-7.3028,-7.3066,-7.3119,-7.3122,-7.3137,-7.3194,-7.3148,-7.3171,-7.3131,-7.3106,-7.3169,-7.3155,-7.3172,-7.3189,-7.3151,-7.3265,-7.3238,-7.3183,-7.3097,-7.3237,-7.3286,-7.3306,-7.3029,-7.3026,-7.3023,-7.3021,0,0,-7.326,-7.3235,-7.3255,-7.3256,-7.3243,-7.3272,-7.3326,-7.3344,-7.3364,-7.3368,-7.3411,-7.3454,-7.3403,-7.3409,-7.337,-7.3415,-7.3543,-7.3353,-7.3352,-7.3387,-7.3667,-7.3707,-7.3731,-7.3508,-7.3512,-7.3515,-7.3667,0,-7.3411,-7.35,-7.3455,-7.355,-7.3584,-7.3509,-7.3556,-7.3554,-7.3533,-7.356,-7.3537,-7.3568,-7.3499,-7.3502,-7.3543,-7.3519,-7.3598,-7.3508,-7.3545,-7.3547,-7.3546,-7.3757,-7.3799,-7.3943,-7.3686,-7.3689,-7.3691,0,-7.3598,-7.3611,-7.371,-7.3693,-7.3706,-7.3749,-7.3762,-7.3789,-7.3786,-7.3768,-7.3777,-7.3728,-7.378,-7.3699,-7.3769,-7.3709,-7.3722,-7.3714,-7.3718,-7.3716,-7.3625,-7.3759,-7.3988,-7.4008,-7.3721,-7.3719,-7.3717,0,-7.3755,-7.3798,-7.3863,-7.3866,-7.3848,-7.388,-7.3874,-7.3867,-7.3881,-7.3894,-7.3902,-7.3921,-7.393,-7.3946,-7.3904,-7.3849,-7.398,-7.3895,-7.3965,-7.3966,-7.3993,-7.3991,-7.4224,-7.4008,-7.4007,-7.4007,-7.4006,0,-7.3927,-7.399,-7.3933,-7.3973,-7.4042,-7.399,-7.4059,-7.4045,-7.404,-7.4076,-7.4013,-7.4048,-7.3992,-7.4021,-7.399,-7.4052,-7.4058,-7.4044,-7.4034,-7.4047,-7.4049,-7.4052,-7.404,-7.4012,-7.4011,-7.401,-7.4009,0,-7.4111,-7.4077,-7.4142,-7.4121,-7.4117,-7.4169,-7.415,-7.4186,-7.4163,-7.4209,-7.4217,-7.418,-7.4212,-7.4173,-7.4201,-7.418,-7.4264,-7.4241,-7.4265,-7.4257,-7.4328,-7.4321,-7.4569,-7.4599,-7.4366,-7.4369,-7.4371,0,-7.4221,-7.4268,-7.4253,-7.4273,-7.4271,-7.4303,-7.4318,-7.427,-7.4288,-7.429,-7.4326,-7.4353,-7.4371,-7.4426,-7.4401,-7.4423,-7.4398,-7.4484,-7.44,-7.4413,-7.4396,-7.4393,-7.4396,-7.4499,-7.4502,-7.4504,-7.4506,0,-7.4419,-7.4401,-7.4424,-7.4443,-7.4463,-7.4476,-7.4483,-7.4503,-7.4453,-7.4477,-7.4509,-7.4524,-7.4554,-7.4581,-7.4596,-7.459,-7.454,-7.4534,-7.455,-7.4563,-7.4574,-7.4566,-7.4308,-7.4527,-7.4525,-7.4523,-7.4522,-7.4521,-7.4568,-7.4606,-7.4602,-7.4631,-7.4633,-7.4642,-7.4675,-7.4657,-7.4683,-7.4703,-7.4674,-7.4714,-7.4712,-7.4728,-7.4728,-7.4759,-7.4721,-7.4747,-7.4752,-7.4758,-7.4768,-7.4572,-7.4762,-7.4761,-7.476,-7.476,-7.4759,0,-7.4761,-7.4755,-7.4783,-7.4796,-7.482,-7.4773,-7.478,-7.4802,-7.4839,-7.4841,-7.4862,-7.4899,-7.4926,-7.4906,-7.4928,-7.4957,-7.4934,-7.4964,-7.4959,-7.4959,-7.4801,-7.4783,-7.4982,-7.4982,-7.4982,-7.4982,-7.4981,-7.4981,-7.4863,-7.4925,-7.4907,-7.497,-7.4964,-7.5003,-7.5011,-7.5019,-7.5021,-7.5066,-7.5089,-7.5076,-7.5069,-7.5091,-7.5114,-7.5107,-7.5117,-7.5155,-7.514,-7.4992,-7.497,-7.4949,-7.4931,-7.5158,-7.5158,-7.5294,-7.5296,-7.5297]},{"header":{"parameterUnit":"m.s-1","parameterCategory":1,"la1":30.2991,"la2":30.254,"lo1":-89.0895,"lo2":-89.0444,"dy":0.0017,"dx":0.0017,"nx":28,"ny":28,"refTime":"2024-06-16T09:00:00:Z","depth":0,"parameterNumber":3,"parameterNumberName":"V-component_of_WINDS"},"data":[0,0,0,0,0,0,0,0,0,0,0,0,0,0,0,0,0,0,0,0,0,0,0,0,0,0,0,0,0,0,0,0,0,0,0,0,0,0,0,0,0,0,0,0,0,0,0,0,0,0,0,0,0,0,0,0,0,0,2.0192,2.0192,0,2.0176,2.0175,2.0175,2.0206,2.0207,2.0208,2.0209,2.0187,2.0185,2.0184,0,0,0,0,0,0,0,0,0,0,0,0,0,2.0248,2.0247,2.0192,2.0192,2.0192,2.0176,2.0175,2.0175,2.0206,2.0207,2.0209,2.021,2.0187,2.0185,2.0183,0,0,0,0,0,0,0,0,0,0,0,0,0,2.0227,2.0246,2.0192,2.0206,2.0207,2.0176,2.0175,2.0175,2.0206,2.0207,2.0209,2.021,2.0188,2.0186,2.0183,2.0137,0,0,2.0176,2.0175,0,0,0,0,0,0,0,0,2.0228,2.0224,2.0204,2.0205,2.0206,2.0195,2.0187,2.0162,2.0205,2.0206,2.0209,2.0211,2.0188,2.0185,2.0179,2.0136,2.0135,2.0176,2.0174,2.0173,2.0173,0,0,0,0,0,0,0,2.0229,2.0225,2.0186,2.0203,2.0205,2.0211,2.021,2.0182,2.0188,2.0206,2.0208,2.0206,2.0189,2.0181,2.0178,2.0135,2.0176,2.0174,2.0172,2.0171,2.0055,2.0054,0,0,0,0,0,0,2.023,2.0226,2.0186,2.0185,2.0221,2.0209,2.0208,2.0197,2.0188,2.0189,2.0205,2.0208,2.0184,2.0181,2.0178,2.0124,2.0173,2.0171,2.017,2.0057,2.0055,2.0053,0,0,0,0,0,0,2.0231,2.0226,2.0187,2.0206,2.0202,2.0206,2.0194,2.0195,2.0188,2.0188,2.0188,2.0196,2.0185,2.0181,2.0148,2.0124,2.017,2.0168,2.0059,2.0056,2.0054,2.0016,0,0,0,0,0,0,2.0232,2.0226,2.0209,2.0206,2.0201,2.0158,2.0192,2.0194,2.0184,2.0188,2.018,2.018,2.0186,2.0151,2.0145,2.0121,2.0166,2.0061,2.0058,2.0055,2.0019,2.0013,2.0007,0,0,0,0,0,2.0234,2.0197,2.0208,2.0203,2.018,2.0156,2.0153,2.0163,2.0182,2.0165,2.0165,2.018,2.0128,2.0147,2.0141,2.0116,2.0063,2.0059,2.0055,2.0022,2.0014,2.0007,0,0,0,0,0,0,2.0195,2.0197,2.0209,2.017,2.0163,2.0162,2.014,2.0154,2.0139,2.0143,2.0154,2.0152,2.0117,2.0113,2.0135,2.0072,2.0098,2.0093,2.0075,2.0067,2.0061,2.0062,2.0164,0,0,0,0,0,2.0182,2.0164,2.0167,2.0132,2.0129,2.0135,2.0125,2.0134,2.0126,2.0122,2.012,2.0111,2.0093,2.008,2.0063,2.002,2.0019,2.0,1.9993,1.9988,1.9983,1.9961,1.9953,2.0041,2.0041,2.0041,0,0,2.0155,2.0154,2.0141,2.0125,2.012,2.01,2.0132,2.0109,2.0095,2.0118,2.0087,2.0086,2.0076,2.0038,2.0021,2.0034,1.9959,1.9983,1.9979,1.9977,1.9956,1.9948,1.9941,2.0038,2.0039,2.0039,0,0,2.0095,2.0093,2.0065,2.006,2.0054,2.0059,2.0053,2.005,2.005,2.002,2.0038,2.002,1.9988,1.9981,1.9974,1.9915,1.9928,1.9909,1.9875,1.9854,1.9847,1.984,1.982,1.9812,1.9904,1.9904,1.9904,0,2.0061,2.0034,2.0048,2.0025,2.0017,2.0041,2.0012,2.0007,1.9995,1.9988,2.0004,1.9966,1.9961,1.9922,1.9908,1.9901,1.9894,1.9909,1.9847,1.9841,1.9835,1.9816,1.9808,1.9902,1.9902,1.9902,1.9902,0,1.9993,1.9973,1.9951,1.9942,1.9932,1.9906,1.9916,1.9904,1.9914,1.9917,1.9887,1.9882,1.9866,1.9857,1.9866,1.982,1.9829,1.9845,1.9871,1.9824,1.9806,1.9799,1.9898,1.9899,1.99,1.9901,0,0,1.9905,1.9907,1.9898,1.9895,1.9891,1.9876,1.9852,1.9838,1.9828,1.9819,1.9799,1.9773,1.9789,1.978,1.9788,1.977,1.9724,1.9789,1.9789,1.9777,1.9675,1.9662,1.9653,1.9734,1.9733,1.9731,1.9676,0,1.9846,1.9806,1.982,1.9779,1.9761,1.9785,1.9764,1.9759,1.9762,1.9747,1.975,1.9732,1.9754,1.9749,1.9732,1.9733,1.9704,1.9738,1.9714,1.9713,1.9715,1.9643,1.9629,1.9576,1.9668,1.9667,1.9666,0,1.9771,1.9763,1.9721,1.9723,1.9716,1.9697,1.9686,1.9672,1.9667,1.9671,1.9663,1.9676,1.9651,1.9679,1.9646,1.9669,1.9661,1.966,1.9658,1.9656,1.9686,1.9638,1.956,1.9552,1.9655,1.9656,1.9657,0,1.9712,1.969,1.9663,1.9659,1.966,1.9646,1.9646,1.9643,1.9634,1.9625,1.962,1.9606,1.9599,1.9588,1.9597,1.9617,1.9563,1.9591,1.9565,1.9564,1.9551,1.9552,1.947,1.9547,1.9547,1.9547,1.9547,0,1.9645,1.9618,1.9636,1.9619,1.959,1.9606,1.9577,1.9579,1.9577,1.956,1.9579,1.9563,1.9576,1.9561,1.9568,1.954,1.9536,1.9538,1.954,1.9536,1.9535,1.9529,1.9533,1.9545,1.9545,1.9546,1.9546,0,1.9573,1.9584,1.9556,1.9561,1.9561,1.9539,1.9543,1.9527,1.9533,1.9511,1.9507,1.9516,1.9499,1.9508,1.9489,1.9494,1.9458,1.9465,1.946,1.9462,1.9435,1.9437,1.9345,1.9334,1.9419,1.9418,1.9417,0,1.9529,1.9509,1.9513,1.9504,1.9503,1.9488,1.9481,1.9496,1.9487,1.9482,1.9466,1.9452,1.9441,1.9413,1.9417,1.9404,1.941,1.9379,1.9408,1.9405,1.941,1.9411,1.9409,1.9373,1.9372,1.9371,1.937,0,1.9449,1.9457,1.9446,1.9437,1.9428,1.9422,1.9417,1.9408,1.9424,1.9413,1.9397,1.9389,1.9372,1.9358,1.9347,1.9345,1.936,1.9362,1.9355,1.935,1.9348,1.9349,1.9444,1.9363,1.9364,1.9365,1.9365,1.9365,1.939,1.9374,1.9375,1.9363,1.9361,1.9357,1.9343,1.9348,1.9336,1.9325,1.9335,1.9316,1.9314,1.9301,1.9298,1.9283,1.9296,1.9285,1.9283,1.928,1.9277,1.9352,1.9281,1.9282,1.9282,1.9282,1.9282,0,1.9312,1.9314,1.9303,1.9297,1.9287,1.9305,1.9301,1.9291,1.9276,1.9273,1.9263,1.9246,1.9232,1.9236,1.9224,1.9212,1.9218,1.9208,1.9208,1.9208,1.9266,1.9273,1.9203,1.9203,1.9203,1.9203,1.9203,1.9203,1.927,1.9245,1.9253,1.9227,1.923,1.9214,1.921,1.9206,1.9204,1.9185,1.9175,1.9178,1.9178,1.9167,1.9155,1.9157,1.9151,1.9138,1.9142,1.9196,1.9204,1.9211,1.9218,1.9137,1.9137,1.9085,1.9085,1.9084]}]]